AAL1024 MUHA-KMIA

Flight info

Callsign AAL1024
Flight time 0h 42m
Altitude 26000
Route EPMAR4A MAXIM SNDBR3
Aircraft B788/H-SDE1E2E3FGHIJ2J3J4J5M1RWXY/LB1D1

Departure

Time 2026-05-06 04:02
Airport José Martí International Airport (MUHA)

Arrival

Time 2026-05-06 04:45
Airport Miami International Airport (KMIA)
Time Latitude Longitude Altitude Speed Heading
2026-05-06 03:41 22.99700 -82.40633 222 ft 0 kts 236°
2026-05-06 03:52 22.99712 -82.40615 225 ft 4 kts 234°
2026-05-06 03:52 22.99729 -82.40592 226 ft 4 kts 221°
2026-05-06 03:52 22.99749 -82.40580 222 ft 4 kts 168°
2026-05-06 03:53 22.99760 -82.40585 222 ft 1 kts 144°
2026-05-06 03:56 22.99759 -82.40584 222 ft 1 kts 144°
2026-05-06 03:56 22.99727 -82.40560 231 ft 7 kts 147°
2026-05-06 03:56 22.99679 -82.40528 225 ft 9 kts 150°
2026-05-06 03:56 22.99616 -82.40499 227 ft 13 kts 155°
2026-05-06 03:57 22.99539 -82.40446 229 ft 14 kts 144°
2026-05-06 03:57 22.99467 -82.40409 226 ft 6 kts 192°
2026-05-06 03:57 22.99425 -82.40461 226 ft 14 kts 236°
2026-05-06 03:57 22.99364 -82.40551 227 ft 16 kts 234°
2026-05-06 03:58 22.99290 -82.40661 226 ft 20 kts 234°
2026-05-06 03:58 22.99207 -82.40787 223 ft 21 kts 234°
2026-05-06 03:58 22.99121 -82.40916 226 ft 21 kts 234°
2026-05-06 03:58 22.99035 -82.41046 227 ft 22 kts 234°
2026-05-06 03:59 22.98944 -82.41180 231 ft 22 kts 233°
2026-05-06 03:59 22.98855 -82.41318 229 ft 23 kts 235°
2026-05-06 03:59 22.98762 -82.41458 231 ft 23 kts 234°
2026-05-06 03:59 22.98650 -82.41626 225 ft 29 kts 234°
2026-05-06 04:00 22.98532 -82.41802 226 ft 29 kts 234°
2026-05-06 04:00 22.98417 -82.41979 226 ft 29 kts 235°
2026-05-06 04:00 22.98301 -82.42153 226 ft 28 kts 234°
2026-05-06 04:00 22.98187 -82.42326 227 ft 28 kts 234°
2026-05-06 04:01 22.98074 -82.42495 225 ft 23 kts 235°
2026-05-06 04:01 22.97986 -82.42559 228 ft 15 kts 173°
2026-05-06 04:01 22.97900 -82.42503 227 ft 14 kts 135°
2026-05-06 04:01 22.97921 -82.42404 227 ft 21 kts 56°
2026-05-06 04:02 22.98087 -82.42153 228 ft 68 kts 54°
2026-05-06 04:02 22.98490 -82.41546 225 ft 129 kts 54°
2026-05-06 04:02 22.99116 -82.40606 293 ft 173 kts 57°
2026-05-06 04:02 22.99795 -82.39564 1121 ft 166 kts 57°
2026-05-06 04:03 23.00435 -82.38552 2008 ft 164 kts 58°
2026-05-06 04:03 23.01137 -82.37482 2679 ft 188 kts 54°
2026-05-06 04:03 23.01980 -82.36265 3326 ft 216 kts 53°
2026-05-06 04:03 23.02920 -82.34860 3981 ft 246 kts 54°
2026-05-06 04:04 23.03973 -82.33267 4829 ft 269 kts 53°
2026-05-06 04:04 23.05069 -82.31610 6163 ft 273 kts 53°
2026-05-06 04:04 23.06204 -82.29901 7262 ft 282 kts 53°
2026-05-06 04:04 23.07363 -82.28153 8434 ft 288 kts 53°
2026-05-06 04:05 23.08551 -82.26362 9568 ft 296 kts 53°
2026-05-06 04:05 23.09773 -82.24516 10504 ft 310 kts 53°
2026-05-06 04:05 23.11067 -82.22567 10983 ft 337 kts 52°
2026-05-06 04:05 23.12584 -82.20498 11361 ft 362 kts 41°
2026-05-06 04:06 23.14778 -82.19004 11621 ft 385 kts 20°
2026-05-06 04:06 23.17459 -82.18355 11815 ft 406 kts
2026-05-06 04:06 23.20241 -82.18672 12752 ft 402 kts 345°
2026-05-06 04:06 23.22869 -82.19749 13570 ft 405 kts 334°
2026-05-06 04:07 23.25375 -82.21155 14289 ft 407 kts 331°
2026-05-06 04:07 23.27887 -82.22599 15004 ft 409 kts 333°
2026-05-06 04:07 23.30491 -82.23848 15897 ft 406 kts 339°
2026-05-06 04:07 23.33150 -82.24814 16943 ft 400 kts 342°
2026-05-06 04:08 23.35778 -82.25754 17970 ft 395 kts 340°
2026-05-06 04:08 23.38296 -82.26795 18906 ft 390 kts 338°
2026-05-06 04:08 23.40823 -82.27874 19690 ft 390 kts 338°
2026-05-06 04:08 23.43360 -82.28897 20518 ft 389 kts 339°
2026-05-06 04:09 23.45914 -82.29904 21345 ft 388 kts 339°
2026-05-06 04:09 23.48443 -82.30924 22211 ft 387 kts 338°
2026-05-06 04:09 23.50956 -82.31952 23048 ft 386 kts 338°
2026-05-06 04:09 23.53468 -82.32972 23874 ft 385 kts 338°
2026-05-06 04:10 23.55978 -82.33984 24593 ft 383 kts 338°
2026-05-06 04:10 23.58469 -82.34991 25335 ft 381 kts 338°
2026-05-06 04:10 23.60960 -82.36003 25941 ft 384 kts 337°
2026-05-06 04:10 23.63498 -82.37035 26053 ft 395 kts 338°
2026-05-06 04:11 23.66069 -82.38076 26057 ft 392 kts 338°
2026-05-06 04:11 23.68616 -82.39107 26059 ft 389 kts 338°
2026-05-06 04:11 23.71151 -82.40137 26057 ft 389 kts 337°
2026-05-06 04:11 23.73687 -82.41169 26062 ft 388 kts 337°
2026-05-06 04:12 23.76191 -82.42186 26063 ft 388 kts 337°
2026-05-06 04:12 23.78721 -82.43214 26062 ft 388 kts 337°
2026-05-06 04:12 23.81262 -82.44247 26061 ft 388 kts 337°
2026-05-06 04:12 23.83793 -82.45277 26057 ft 388 kts 337°
2026-05-06 04:13 23.86332 -82.46310 26060 ft 388 kts 337°
2026-05-06 04:13 23.88859 -82.47339 26059 ft 388 kts 337°
2026-05-06 04:13 23.91396 -82.48362 26064 ft 388 kts 340°
2026-05-06 04:13 23.94037 -82.49024 26080 ft 391 kts 350°
2026-05-06 04:14 23.96259 -82.49165 26098 ft 395 kts 358°
2026-05-06 04:14 23.98839 -82.48865 26082 ft 399 kts
2026-05-06 04:14 24.01490 -82.48007 26076 ft 403 kts 18°
2026-05-06 04:14 24.03963 -82.46608 26082 ft 408 kts 28°
2026-05-06 04:15 24.06197 -82.44676 26083 ft 413 kts 39°
2026-05-06 04:15 24.08197 -82.42412 26079 ft 412 kts 41°
2026-05-06 04:15 24.10181 -82.40142 26076 ft 413 kts 41°
2026-05-06 04:15 24.12156 -82.37849 26076 ft 413 kts 41°
2026-05-06 04:16 24.14120 -82.35564 26078 ft 412 kts 41°
2026-05-06 04:16 24.16055 -82.33242 26078 ft 415 kts 47°
2026-05-06 04:16 24.17596 -82.30548 26083 ft 422 kts 59°
2026-05-06 04:16 24.18873 -82.27654 26075 ft 421 kts 59°
2026-05-06 04:17 24.20140 -82.24772 26077 ft 420 kts 59°
2026-05-06 04:17 24.21401 -82.21877 26076 ft 421 kts 59°
2026-05-06 04:17 24.22660 -82.18988 26075 ft 421 kts 59°
2026-05-06 04:17 24.23910 -82.16130 26077 ft 421 kts 59°
2026-05-06 04:18 24.25173 -82.13239 26077 ft 421 kts 59°
2026-05-06 04:18 24.26436 -82.10342 26076 ft 421 kts 59°
2026-05-06 04:18 24.27696 -82.07449 26071 ft 421 kts 59°
2026-05-06 04:18 24.28957 -82.04554 26073 ft 421 kts 59°
2026-05-06 04:19 24.30215 -82.01665 26074 ft 420 kts 59°
2026-05-06 04:19 24.31475 -81.98769 26075 ft 420 kts 59°
2026-05-06 04:19 24.32733 -81.95874 26073 ft 421 kts 59°
2026-05-06 04:19 24.33994 -81.92972 26074 ft 421 kts 59°
2026-05-06 04:20 24.35255 -81.90068 26074 ft 421 kts 59°
2026-05-06 04:20 24.36511 -81.87172 26076 ft 420 kts 59°
2026-05-06 04:20 24.37769 -81.84274 26075 ft 421 kts 59°
2026-05-06 04:20 24.39025 -81.81374 26075 ft 421 kts 59°
2026-05-06 04:21 24.40275 -81.78487 26077 ft 420 kts 59°
2026-05-06 04:21 24.41534 -81.75579 26078 ft 420 kts 59°
2026-05-06 04:21 24.42771 -81.72719 26077 ft 421 kts 59°
2026-05-06 04:21 24.44025 -81.69819 26077 ft 420 kts 59°
2026-05-06 04:22 24.45319 -81.66955 26084 ft 416 kts 53°
2026-05-06 04:22 24.47021 -81.64414 26089 ft 412 kts 45°
2026-05-06 04:22 24.48850 -81.61977 26079 ft 414 kts 45°
2026-05-06 04:23 24.52533 -81.57111 26083 ft 415 kts 45°
2026-05-06 04:23 24.54368 -81.54671 26080 ft 415 kts 45°
2026-05-06 04:23 24.56212 -81.52220 26076 ft 416 kts 45°
2026-05-06 04:23 24.58054 -81.49774 26074 ft 416 kts 45°
2026-05-06 04:24 24.59897 -81.47326 26073 ft 416 kts 45°
2026-05-06 04:24 24.61743 -81.44872 26071 ft 416 kts 45°
2026-05-06 04:24 24.63588 -81.42415 26065 ft 417 kts 45°
2026-05-06 04:24 24.65436 -81.39956 26066 ft 417 kts 45°
2026-05-06 04:25 24.67278 -81.37503 26065 ft 416 kts 45°
2026-05-06 04:25 24.69102 -81.35073 26068 ft 416 kts 45°
2026-05-06 04:25 24.70948 -81.32612 26069 ft 417 kts 45°
2026-05-06 04:25 24.72796 -81.30147 26055 ft 419 kts 45°
2026-05-06 04:26 24.74128 -81.28369 26075 ft 419 kts 45°
2026-05-06 04:26 24.75980 -81.25896 26061 ft 419 kts 45°
2026-05-06 04:26 24.77837 -81.23415 26066 ft 419 kts 45°
2026-05-06 04:26 24.79695 -81.20933 26065 ft 420 kts 45°
2026-05-06 04:27 24.81564 -81.18437 25789 ft 425 kts 45°
2026-05-06 04:27 24.83455 -81.15908 25189 ft 428 kts 45°
2026-05-06 04:27 24.85413 -81.13448 24630 ft 421 kts 37°
2026-05-06 04:27 24.87653 -81.11507 24087 ft 411 kts 26°
2026-05-06 04:28 24.90175 -81.10063 23526 ft 404 kts 18°
2026-05-06 04:28 24.92731 -81.08789 22964 ft 402 kts 19°
2026-05-06 04:28 24.95273 -81.07534 22429 ft 398 kts 18°
2026-05-06 04:28 24.97802 -81.06295 21913 ft 396 kts 19°
2026-05-06 04:29 25.00301 -81.05064 21390 ft 393 kts 19°
2026-05-06 04:29 25.02787 -81.03833 20880 ft 390 kts 19°
2026-05-06 04:29 25.05255 -81.02613 20358 ft 388 kts 19°
2026-05-06 04:29 25.07712 -81.01402 19850 ft 385 kts 19°
2026-05-06 04:30 25.10156 -81.00194 19348 ft 383 kts 19°
2026-05-06 04:30 25.12579 -80.98996 18843 ft 380 kts 19°
2026-05-06 04:30 25.14985 -80.97805 18342 ft 378 kts 19°
2026-05-06 04:30 25.17344 -80.96638 17806 ft 374 kts 20°
2026-05-06 04:31 25.19711 -80.95465 17323 ft 370 kts 20°
2026-05-06 04:31 25.22058 -80.94303 16834 ft 368 kts 20°
2026-05-06 04:31 25.24389 -80.93148 16349 ft 366 kts 20°
2026-05-06 04:31 25.26706 -80.92000 15876 ft 364 kts 20°
2026-05-06 04:32 25.29011 -80.90857 15388 ft 361 kts 20°
2026-05-06 04:32 25.31301 -80.89721 14916 ft 359 kts 20°
2026-05-06 04:32 25.33565 -80.88597 14444 ft 356 kts 20°
2026-05-06 04:32 25.35822 -80.87477 13980 ft 354 kts 20°
2026-05-06 04:33 25.38067 -80.86361 13404 ft 351 kts 21°
2026-05-06 04:33 25.40301 -80.85371 12933 ft 341 kts 18°
2026-05-06 04:33 25.42463 -80.84348 12493 ft 335 kts 20°
2026-05-06 04:33 25.44548 -80.83326 12050 ft 327 kts 19°
2026-05-06 04:34 25.46675 -80.82567 11632 ft 318 kts 14°
2026-05-06 04:34 25.48749 -80.81772 11218 ft 313 kts 17°
2026-05-06 04:34 25.50781 -80.80953 10812 ft 308 kts 16°
2026-05-06 04:34 25.52792 -80.80191 10400 ft 304 kts 15°
2026-05-06 04:35 25.54786 -80.79455 10012 ft 300 kts 15°
2026-05-06 04:35 25.56750 -80.78718 9601 ft 295 kts 15°
2026-05-06 04:35 25.58667 -80.77988 9205 ft 286 kts 15°
2026-05-06 04:35 25.60540 -80.77280 8832 ft 284 kts 16°
2026-05-06 04:36 25.61785 -80.76811 8588 ft 286 kts 16°
2026-05-06 04:36 25.63656 -80.76086 8229 ft 282 kts 20°
2026-05-06 04:36 25.65659 -80.74294 7747 ft 283 kts 49°
2026-05-06 04:36 25.66858 -80.72570 7373 ft 281 kts 52°
2026-05-06 04:37 25.68012 -80.70829 6992 ft 280 kts 52°
2026-05-06 04:37 25.68799 -80.69662 6760 ft 278 kts 52°
2026-05-06 04:37 25.69956 -80.67977 6386 ft 269 kts 52°
2026-05-06 04:37 25.71059 -80.66377 6022 ft 253 kts 52°
2026-05-06 04:38 25.72080 -80.64886 5695 ft 241 kts 52°
2026-05-06 04:38 25.73082 -80.63417 5378 ft 237 kts 52°
2026-05-06 04:38 25.74071 -80.61971 5070 ft 234 kts 52°
2026-05-06 04:38 25.75036 -80.60561 4772 ft 225 kts 52°
2026-05-06 04:39 25.75964 -80.59203 4456 ft 217 kts 53°
2026-05-06 04:39 25.76860 -80.57892 4175 ft 210 kts 53°
2026-05-06 04:39 25.77492 -80.56483 3903 ft 202 kts 80°
2026-05-06 04:39 25.77615 -80.54988 3876 ft 191 kts 86°
2026-05-06 04:40 25.77695 -80.53518 3852 ft 191 kts 87°
2026-05-06 04:40 25.77758 -80.52031 3637 ft 192 kts 88°
2026-05-06 04:40 25.77819 -80.50566 3401 ft 189 kts 88°
2026-05-06 04:40 25.77879 -80.49120 3158 ft 186 kts 88°
2026-05-06 04:41 25.77938 -80.47696 2914 ft 184 kts 88°
2026-05-06 04:41 25.77996 -80.46283 2675 ft 183 kts 88°
2026-05-06 04:41 25.78055 -80.44884 2447 ft 180 kts 88°
2026-05-06 04:41 25.78111 -80.43522 2216 ft 177 kts 88°
2026-05-06 04:42 25.78164 -80.42204 2001 ft 171 kts 87°
2026-05-06 04:42 25.78221 -80.40859 1759 ft 175 kts 87°
2026-05-06 04:42 25.78275 -80.39520 1538 ft 174 kts 87°
2026-05-06 04:42 25.78330 -80.38189 1314 ft 170 kts 87°
2026-05-06 04:43 25.78381 -80.36952 1093 ft 153 kts 87°
2026-05-06 04:43 25.78430 -80.35814 894 ft 144 kts 87°
2026-05-06 04:43 25.78477 -80.34717 736 ft 140 kts 87°
2026-05-06 04:43 25.78513 -80.33621 579 ft 144 kts 87°
2026-05-06 04:44 25.78558 -80.32525 346 ft 138 kts 85°
2026-05-06 04:44 25.78608 -80.31469 125 ft 141 kts 87°
2026-05-06 04:44 25.78655 -80.30401 25 ft 129 kts 86°
2026-05-06 04:44 25.78689 -80.29595 20 ft 74 kts 87°
2026-05-06 04:45 25.78706 -80.29181 21 ft 46 kts 87°
2026-05-06 04:45 25.78721 -80.28872 21 ft 25 kts 83°
2026-05-06 04:45 25.78771 -80.28727 21 ft 20 kts 51°
2026-05-06 04:45 25.78915 -80.28683 20 ft 25 kts 358°
2026-05-06 04:46 25.79014 -80.28688 20 ft 6 kts 356°
2026-05-06 04:46 25.79018 -80.28688 20 ft 0 kts 356°
2026-05-06 04:46 25.79021 -80.28689 20 ft 1 kts 356°
2026-05-06 04:47 25.79066 -80.28691 22 ft 21 kts 357°
2026-05-06 04:47 25.79208 -80.28698 21 ft 10 kts 358°
2026-05-06 04:47 25.79275 -80.28720 20 ft 10 kts 321°
2026-05-06 04:47 25.79321 -80.28782 20 ft 10 kts 323°
2026-05-06 04:48 25.79392 -80.28798 21 ft 12 kts 356°
2026-05-06 04:48 25.79486 -80.28804 22 ft 14 kts 357°
2026-05-06 04:48 25.79588 -80.28808 22 ft 15 kts 357°
2026-05-06 04:48 25.79698 -80.28814 23 ft 16 kts 357°
2026-05-06 04:49 25.79816 -80.28820 22 ft 17 kts 356°
2026-05-06 04:49 25.79937 -80.28827 25 ft 16 kts 357°
2026-05-06 04:49 25.80014 -80.28774 27 ft 13 kts 72°
2026-05-06 04:49 25.80021 -80.28673 24 ft 14 kts 88°
2026-05-06 04:50 25.80026 -80.28563 21 ft 15 kts 87°
2026-05-06 04:50 25.80031 -80.28439 20 ft 17 kts 88°
2026-05-06 04:50 25.80024 -80.28352 20 ft 14 kts 117°
2026-05-06 04:50 25.79970 -80.28301 21 ft 10 kts 128°
2026-05-06 04:51 25.79957 -80.28228 21 ft 10 kts 90°
2026-05-06 04:51 25.79960 -80.28145 20 ft 11 kts 87°
2026-05-06 04:51 25.79964 -80.28053 22 ft 13 kts 87°
2026-05-06 04:51 25.79968 -80.27962 20 ft 0 kts 88°
2026-05-06 04:52 25.79962 -80.27928 23 ft 7 kts 111°
2026-05-06 04:52 25.79927 -80.27900 21 ft 6 kts 156°
2026-05-06 04:52 25.79879 -80.27893 22 ft 8 kts 175°
2026-05-06 04:53 25.79821 -80.27889 22 ft 9 kts 176°
2026-05-06 04:53 25.79789 -80.27887 24 ft 2 kts 175°
2026-05-06 04:53 25.79781 -80.27886 23 ft 1 kts 176°